Location: Cazavet
(43.0017°N, 1.0431°E)
Time: 20:58:38
(UTC+00:00)

ARIANE 5 R/B - Pass Details

Date: 18 January 2026
Orbit: 746 x 793 km, 98.8° (Epoch: 10 February)

Event Time Altitude Azimuth Distance (km) Brightness Sun altitude
Rises 06:34:27 0° 15° (NNE) 3,257 5.7 -8.9°
Reaches altitude 10° 06:36:47 10° 17° (NNE) 2,319 5.0 -8.5°
Maximum altitude 06:41:53 77° 103° (ESE) 785 2.7 -7.6°
Drops below altitude 10° 06:46:54 10° 190° (S) 2,273 5.1 -6.8°
Sets 06:49:10 0° 192° (SSW) 3,188 5.9 -6.4°
